Regional Weather Roundup
Issued by NWS

Home | Current Version | Previous Version | Graphics & Text | Print | Product List | Glossary On
Versions: 1 2 3 4 5 6 7 8 9 10 11 12 13 14 15 16 17 18 19 20 21 22 23 24 25 26 27 28 29 30 31 32 33 34 35 36 37 38 39 40 41 42 43 44 45 46 47 48 49 50
000
ASUS43 KBIS 181320
RWRND

NORTH DAKOTA REGIONAL WEATHER ROUNDUP
NATIONAL WEATHER SERVICE BISMARCK ND
800 AM CDT FRI APR 18 2014

NOTE: "FAIR" INDICATES FEW OR NO CLOUDS BELOW 12,000 FEET WITH NO
SIGNIFICANT WEATHER AND/OR OBSTRUCTIONS TO VISIBILITY.


NDZ001>003-009>011-017-181400-
NORTHWEST NORTH DAKOTA

CITY           SKY/WX    TMP DP  RH WIND       PRES   REMARKS
WILLISTON      PTCLDY    36  23  59 SE16      29.88F
MINOT          CLOUDY    32  21  64 E20G26    30.04S
MINOT AFB      CLOUDY    32  23  69 SE17      30.05R
$$

NDZ018>021-031>035-040>046-181400-
SOUTHWEST NORTH DAKOTA

CITY           SKY/WX    TMP DP  RH WIND       PRES   REMARKS
BISMARCK       MOSUNNY   36  22  56 SE20G26   30.04F
DICKINSON      PTCLDY    32  24  72 SE18      29.86F
GARRISON         N/A     33  23  66 SE23      30.00F
HETTINGER ARPT CLEAR     30  24  78 E14       29.88F WCI  19
$$

NDZ004>008-012>016-024-026-027-054-181400-
NORTHEAST NORTH DAKOTA

CITY           SKY/WX    TMP DP  RH WIND       PRES   REMARKS
GRAND FORKS    PTSUNNY   36  17  46 SE9       30.28S
GRND FRKS AFB  CLOUDY    33  18  54 SE12      30.27F
DEVILS LAKE    MOSUNNY   34  18  51 SE15G21   30.18S
$$

NDZ022-023-025-028>030-036>039-047>053-181400-
SOUTHEAST NORTH DAKOTA

CITY           SKY/WX    TMP DP  RH WIND       PRES   REMARKS
FARGO          CLOUDY    36  25  64 S13       30.27S
JAMESTOWN      MOSUNNY   34  24  67 E21       30.16S
$$




USA.gov is the U.S. government's official web portal to all federal, state and local government web resources and services.